M I D A S
Marine Information and Data Acquisition System
Tripno 866 of the Zeeleeuw from 2005-03-18 07:07:38 to 2005-03-18 15:38:58
Back to CruiseResearch ActivitiesStationsMapUnderway DataData graphs

EquipmentUnitsComments
TimeDGPSUTC
LatitudeDGPSDM.mWGS84
LongitudeDGPSDM.mWGS84
SpeedMeteo Stationm/sRelative wind speed
DirectionMeteo StationdegRelative wind direction
TemperatureMeteo Stationdeg CelciusAir temperature
PressureMeteo StationPaAtmospheric pressure
HumidityMeteo Station%Relative humidity
Missing or incorrect values are displayed as -999
Metereological data collected by the RV Zeeleeuw from 2005-03-18 07:08:53 to 2005-03-18 15:40:54
                                                                                    Next 1000 lines
Time Latitude Longitude Speed Direction Temperature Pressure Humidity
2005-03-18 07:09:03 51°13.596 2°56.096 6.4 169 7.7 102830 98
2005-03-18 07:09:08 51°13.596 2°56.093 5.2 169 7.7 102830 98
2005-03-18 07:09:13 51°13.597 2°56.089 4.7 172 7.7 102830 98
2005-03-18 07:09:19 51°13.599 2°56.085 7.1 185 7.7 102830 98
2005-03-18 07:09:23 51°13.6 2°56.081 6.9 172 7.7 102830 98
2005-03-18 07:09:29 51°13.601 2°56.076 6.2 148 7.7 102830 98
2005-03-18 07:09:34 51°13.603 2°56.071 4.8 166 7.7 102830 98
2005-03-18 07:09:39 51°13.604 2°56.066 4.2 146 7.7 102830 98
2005-03-18 07:09:43 51°13.606 2°56.062 4.5 152 7.7 102830 99
2005-03-18 07:09:49 51°13.607 2°56.059 4.8 151 7.7 102830 99
2005-03-18 07:09:54 51°13.607 2°56.059 5.3 135 7.7 102830 99
2005-03-18 07:09:59 51°13.606 2°56.06 5.1 130 7.7 102830 99
2005-03-18 07:10:03 51°13.605 2°56.063 5.5 134 7.7 102830 98
2005-03-18 07:10:09 51°13.603 2°56.068 3.5 121 7.7 102830 98
2005-03-18 07:10:13 51°13.601 2°56.072 4.7 127 7.7 102820 99
2005-03-18 07:10:19 51°13.599 2°56.078 3.8 126 7.7 102820 99
2005-03-18 07:10:24 51°13.596 2°56.083 4 138 7.7 102830 98
2005-03-18 07:10:28 51°13.594 2°56.087 4.6 129 7.7 102830 98
2005-03-18 07:10:33 51°13.591 2°56.093 3.8 132 7.7 102830 98
2005-03-18 07:10:38 51°13.588 2°56.099 5.1 156 7.7 102830 98
2005-03-18 07:10:43 51°13.585 2°56.105 2.9 146 7.7 102830 98
2005-03-18 07:10:48 51°13.582 2°56.11 4.1 159 7.7 102830 98
2005-03-18 07:10:53 51°13.578 2°56.116 5 161 7.7 102830 98
2005-03-18 07:10:58 51°13.574 2°56.122 2.5 116 7.7 102830 98
2005-03-18 07:11:03 51°13.57 2°56.127 2.7 101 7.7 102830 98
2005-03-18 07:11:08 51°13.566 2°56.132 3.8 94 7.7 102830 98
2005-03-18 07:11:13 51°13.562 2°56.138 2.3 111 7.7 102820 98
2005-03-18 07:11:18 51°13.557 2°56.143 1.2 91 7.7 102820 98
2005-03-18 07:11:24 51°13.553 2°56.151 1.9 78 7.7 102830 98
2005-03-18 07:11:28 51°13.55 2°56.157 1 86 7.7 102830 98
2005-03-18 07:11:34 51°13.547 2°56.166 0.5 102 7.7 102820 98
2005-03-18 07:11:38 51°13.545 2°56.172 1.8 227 7.7 102820 98
2005-03-18 07:11:43 51°13.543 2°56.181 2.4 91 7.7 102820 98
2005-03-18 07:11:48 51°13.542 2°56.19 1.7 146 7.7 102820 98
2005-03-18 07:11:53 51°13.542 2°56.199 1.9 184 7.7 102830 98
2005-03-18 07:11:57 51°13.542 2°56.205 1.7 255 7.7 102830 98
2005-03-18 07:12:03 51°13.543 2°56.215 2.7 294 7.7 102830 99
2005-03-18 07:12:08 51°13.543 2°56.221 3 202 7.7 102830 99
2005-03-18 07:12:13 51°13.543 2°56.226 3 212 7.7 102820 98
2005-03-18 07:12:18 51°13.544 2°56.229 2.1 162 7.7 102820 98
2005-03-18 07:12:23 51°13.544 2°56.23 2.5 177 7.7 102830 98
2005-03-18 07:12:28 51°13.544 2°56.231 4 201 7.7 102830 98
2005-03-18 07:12:34 51°13.543 2°56.23 5 221 7.7 102820 98
2005-03-18 07:12:38 51°13.542 2°56.228 4.1 207 7.7 102820 98
2005-03-18 07:12:43 51°13.541 2°56.225 6.3 180 7.7 102830 99
2005-03-18 07:12:48 51°13.54 2°56.222 6.9 185 7.7 102830 99
2005-03-18 07:12:54 51°13.539 2°56.219 3.6 189 7.7 102820 99
2005-03-18 07:12:59 51°13.539 2°56.217 3.8 204 7.7 102820 99
2005-03-18 07:13:04 51°13.539 2°56.216 3.3 196 7.7 102830 99
2005-03-18 07:13:09 51°13.539 2°56.217 4 206 7.7 102830 99
2005-03-18 07:13:14 51°13.54 2°56.22 3.5 207 7.7 102830 99
2005-03-18 07:13:19 51°13.542 2°56.223 2.9 187 7.7 102830 99
2005-03-18 07:13:24 51°13.544 2°56.227 1.7 203 7.7 102830 99
2005-03-18 07:13:29 51°13.545 2°56.229 3 248 7.7 102830 99
2005-03-18 07:13:34 51°13.546 2°56.23 3 247 7.8 102830 99
2005-03-18 07:13:39 51°13.546 2°56.23 4.2 265 7.8 102830 99
2005-03-18 07:13:43 51°13.545 2°56.229 3.1 251 7.8 102830 99
2005-03-18 07:13:49 51°13.543 2°56.227 3.3 231 7.8 102830 99
2005-03-18 07:13:54 51°13.541 2°56.225 3.7 217 7.8 102820 99
2005-03-18 07:13:58 51°13.539 2°56.222 3.9 232 7.8 102820 99
2005-03-18 07:14:03 51°13.537 2°56.22 3.5 233 7.7 102830 99
2005-03-18 07:14:09 51°13.536 2°56.219 3.2 242 7.7 102830 99
2005-03-18 07:14:14 51°13.536 2°56.219 2.9 258 7.8 102830 99
2005-03-18 07:14:19 51°13.537 2°56.219 4 231 7.8 102830 99
2005-03-18 07:14:24 51°13.539 2°56.221 3.4 244 7.8 102830 99
2005-03-18 07:14:29 51°13.542 2°56.222 2.3 234 7.8 102830 99
2005-03-18 07:14:33 51°13.544 2°56.223 2.2 268 7.8 102830 99
2005-03-18 07:14:39 51°13.546 2°56.225 3.1 248 7.8 102830 99
2005-03-18 07:14:43 51°13.546 2°56.225 3.5 255 7.7 102830 98
2005-03-18 07:14:49 51°13.546 2°56.226 3.7 256 7.7 102830 98
2005-03-18 07:14:54 51°13.545 2°56.226 3.3 244 7.7 102820 99
2005-03-18 07:14:59 51°13.542 2°56.226 5.7 230 7.7 102820 99
2005-03-18 07:15:03 51°13.54 2°56.226 5.6 228 7.7 102820 99
2005-03-18 07:15:09 51°13.536 2°56.225 5.4 229 7.7 102820 99
2005-03-18 07:15:14 51°13.534 2°56.225 4.6 226 7.7 102830 98
2005-03-18 07:15:19 51°13.532 2°56.224 5.5 230 7.7 102830 98
2005-03-18 07:15:24 51°13.531 2°56.224 4.8 275 7.7 102830 99
2005-03-18 07:15:29 51°13.532 2°56.224 4.8 274 7.7 102830 99
2005-03-18 07:15:34 51°13.534 2°56.224 4.4 282 7.7 102840 98
2005-03-18 07:15:38 51°13.536 2°56.223 6.1 291 7.7 102840 98
2005-03-18 07:15:44 51°13.54 2°56.222 5.4 301 7.7 102830 98
2005-03-18 07:15:49 51°13.542 2°56.22 6.1 301 7.7 102830 98
2005-03-18 07:15:54 51°13.545 2°56.219 3.7 300 7.7 102830 98
2005-03-18 07:15:59 51°13.546 2°56.219 3.4 339 7.7 102830 98
2005-03-18 07:16:04 51°13.547 2°56.219 3.4 338 7.7 102830 98
2005-03-18 07:16:09 51°13.546 2°56.22 2.7 326 7.7 102830 98
2005-03-18 07:16:14 51°13.545 2°56.222 2.3 283 7.7 102830 98
2005-03-18 07:16:19 51°13.543 2°56.224 2.9 266 7.7 102830 98
2005-03-18 07:16:23 51°13.541 2°56.227 4.3 272 7.7 102820 98
2005-03-18 07:16:28 51°13.539 2°56.23 3.8 291 7.7 102820 98
2005-03-18 07:16:34 51°13.536 2°56.234 5.7 297 7.7 102820 98
2005-03-18 07:16:39 51°13.533 2°56.237 3.8 284 7.7 102820 98
2005-03-18 07:16:44 51°13.531 2°56.239 4.9 291 7.7 102830 98
2005-03-18 07:16:49 51°13.531 2°56.239 3.9 295 7.7 102830 98
2005-03-18 07:16:53 51°13.532 2°56.238 3.8 301 7.7 102830 98
2005-03-18 07:16:59 51°13.534 2°56.236 4.8 328 7.7 102830 98
2005-03-18 07:17:04 51°13.536 2°56.23 6.3 336 7.7 102830 98
2005-03-18 07:17:09 51°13.538 2°56.224 5 330 7.7 102830 98
2005-03-18 07:17:14 51°13.541 2°56.217 4.3 334 7.7 102830 98
2005-03-18 07:17:19 51°13.543 2°56.209 4.3 359 7.7 102830 98
2005-03-18 07:17:23 51°13.545 2°56.202 7.2 342 7.7 102820 98
2005-03-18 07:17:29 51°13.548 2°56.191 4.5 358 7.7 102820 98
2005-03-18 07:17:33 51°13.55 2°56.182 4.6 324 7.7 102820 98
2005-03-18 07:17:38 51°13.552 2°56.173 6.3 337 7.7 102820 98
2005-03-18 07:17:43 51°13.555 2°56.161 6 351 7.7 102820 99
2005-03-18 07:17:48 51°13.558 2°56.149 7.3 10 7.7 102820 99
2005-03-18 07:17:53 51°13.562 2°56.138 6.3 347 7.8 102820 98
2005-03-18 07:17:58 51°13.566 2°56.127 6.4 346 7.8 102820 98
2005-03-18 07:18:03 51°13.57 2°56.115 6.5 5 7.8 102820 98
2005-03-18 07:18:08 51°13.575 2°56.103 5.2 350 7.8 102820 98
2005-03-18 07:18:13 51°13.579 2°56.091 4.7 345 7.7 102820 99
2005-03-18 07:18:18 51°13.584 2°56.08 7 354 7.7 102820 99
2005-03-18 07:18:23 51°13.589 2°56.066 7.1 358 7.8 102820 98
2005-03-18 07:18:27 51°13.593 2°56.056 7.1 336 7.8 102820 98
2005-03-18 07:18:33 51°13.599 2°56.041 9 334 7.8 102830 98
2005-03-18 07:18:38 51°13.604 2°56.028 8.8 323 7.8 102830 98
2005-03-18 07:18:43 51°13.609 2°56.015 8.6 330 7.7 102830 99
2005-03-18 07:18:47 51°13.613 2°56.004 7.3 327 7.7 102830 99
2005-03-18 07:18:53 51°13.62 2°55.989 10.1 341 7.7 102830 98
2005-03-18 07:18:58 51°13.625 2°55.976 9.8 315 7.7 102830 98
2005-03-18 07:19:04 51°13.631 2°55.961 7.7 344 7.7 102820 98
2005-03-18 07:19:07 51°13.635 2°55.951 7.2 337 7.7 102820 98
2005-03-18 07:19:13 51°13.642 2°55.935 7.7 325 7.7 102820 98
2005-03-18 07:19:17 51°13.647 2°55.924 7.6 339 7.7 102820 98
2005-03-18 07:19:23 51°13.654 2°55.906 7.3 348 7.8 102820 98
2005-03-18 07:19:27 51°13.659 2°55.896 6.5 339 7.8 102820 98
2005-03-18 07:19:33 51°13.667 2°55.876 7.7 331 7.7 102820 98
2005-03-18 07:19:38 51°13.674 2°55.86 8.8 339 7.7 102820 98
2005-03-18 07:19:43 51°13.681 2°55.845 7.7 322 7.7 102810 98
2005-03-18 07:19:48 51°13.688 2°55.829 5.3 338 7.7 102810 98
2005-03-18 07:19:54 51°13.697 2°55.812 6.4 341 7.7 102810 98
2005-03-18 07:19:59 51°13.704 2°55.796 8.1 350 7.7 102810 98
2005-03-18 07:20:04 51°13.713 2°55.779 8.2 350 7.7 102820 98
2005-03-18 07:20:09 51°13.721 2°55.763 7.8 1 7.7 102820 98
2005-03-18 07:20:14 51°13.73 2°55.747 8 356 7.7 102820 98
2005-03-18 07:20:19 51°13.74 2°55.732 8.3 315 7.7 102820 98
2005-03-18 07:20:24 51°13.751 2°55.718 6.1 335 7.7 102810 98
2005-03-18 07:20:29 51°13.762 2°55.704 5.9 348 7.7 102810 98
2005-03-18 07:20:33 51°13.772 2°55.692 5.1 336 7.7 102800 98
2005-03-18 07:20:39 51°13.784 2°55.678 7.8 335 7.7 102800 98
2005-03-18 07:20:44 51°13.796 2°55.665 8 334 7.7 102810 98
2005-03-18 07:20:49 51°13.808 2°55.653 6.6 353 7.7 102810 98
2005-03-18 07:20:54 51°13.821 2°55.642 5.6 339 7.7 102810 98
2005-03-18 07:20:58 51°13.832 2°55.632 7 336 7.7 102810 98
2005-03-18 07:21:03 51°13.845 2°55.623 6.4 328 7.7 102800 98
2005-03-18 07:21:09 51°13.859 2°55.612 8.2 320 7.7 102800 98
2005-03-18 07:21:14 51°13.872 2°55.602 7.8 311 7.7 102810 98
2005-03-18 07:21:19 51°13.885 2°55.592 6.9 317 7.7 102810 98
2005-03-18 07:21:24 51°13.899 2°55.582 7.6 320 7.7 102810 98
2005-03-18 07:21:28 51°13.909 2°55.574 6.4 338 7.7 102810 98
2005-03-18 07:21:33 51°13.924 2°55.563 6 335 7.7 102810 98
2005-03-18 07:21:37 51°13.934 2°55.556 7 339 7.7 102810 98
2005-03-18 07:21:43 51°13.951 2°55.544 6.1 342 7.7 102800 98
2005-03-18 07:21:48 51°13.964 2°55.535 7.9 331 7.7 102800 98
2005-03-18 07:21:53 51°13.977 2°55.525 7.6 350 7.7 102800 98
2005-03-18 07:21:59 51°13.992 2°55.515 7.9 331 7.7 102800 98
2005-03-18 07:22:04 51°14.006 2°55.507 5.8 300 7.7 102810 98
2005-03-18 07:22:08 51°14.018 2°55.498 7.4 318 7.7 102810 98
2005-03-18 07:22:14 51°14.033 2°55.488 6.6 334 7.7 102810 98
2005-03-18 07:22:18 51°14.044 2°55.481 5.8 344 7.7 102810 98
2005-03-18 07:22:23 51°14.059 2°55.471 5.5 347 7.7 102800 98
2005-03-18 07:22:28 51°14.071 2°55.462 7.8 323 7.7 102800 98
2005-03-18 07:22:33 51°14.086 2°55.452 7.2 346 7.7 102800 98
2005-03-18 07:22:38 51°14.1 2°55.442 8 349 7.7 102800 98
2005-03-18 07:22:43 51°14.113 2°55.432 8.2 337 7.7 102800 98
2005-03-18 07:22:47 51°14.124 2°55.423 8 351 7.7 102800 98
2005-03-18 07:22:53 51°14.14 2°55.41 9.6 331 7.6 102800 98
2005-03-18 07:22:58 51°14.152 2°55.399 7.7 339 7.6 102800 98
2005-03-18 07:23:03 51°14.166 2°55.386 9 333 7.6 102810 98
2005-03-18 07:23:07 51°14.177 2°55.377 8.7 334 7.6 102810 98
2005-03-18 07:23:13 51°14.192 2°55.361 7.8 340 7.6 102800 98
2005-03-18 07:23:18 51°14.203 2°55.349 11.8 330 7.6 102800 98
2005-03-18 07:23:23 51°14.217 2°55.333 10.7 321 7.6 102790 98
2005-03-18 07:23:28 51°14.228 2°55.319 11.6 327 7.6 102790 98
2005-03-18 07:23:33 51°14.24 2°55.302 12.4 327 7.6 102790 98
2005-03-18 07:23:38 51°14.25 2°55.287 13.3 329 7.6 102790 98
2005-03-18 07:23:43 51°14.262 2°55.269 11.6 330 7.5 102810 98
2005-03-18 07:23:48 51°14.273 2°55.251 11.9 328 7.5 102810 98
2005-03-18 07:23:53 51°14.282 2°55.235 11.8 328 7.5 102800 98
2005-03-18 07:23:57 51°14.292 2°55.219 12.3 327 7.5 102800 98
2005-03-18 07:24:03 51°14.303 2°55.196 12.9 336 7.4 102790 98
2005-03-18 07:24:07 51°14.31 2°55.183 11.8 322 7.4 102790 98
2005-03-18 07:24:13 51°14.322 2°55.158 10.9 332 7.5 102800 98
2005-03-18 07:24:17 51°14.329 2°55.142 11 339 7.5 102800 98
2005-03-18 07:24:22 51°14.337 2°55.125 13.6 336 7.4 102800 98
2005-03-18 07:24:28 51°14.349 2°55.098 13.3 330 7.4 102800 98
2005-03-18 07:24:33 51°14.359 2°55.078 12.9 332 7.4 102800 98
2005-03-18 07:24:38 51°14.368 2°55.057 13.2 329 7.4 102800 98
2005-03-18 07:24:43 51°14.378 2°55.038 12.4 328 7.4 102800 98
2005-03-18 07:24:48 51°14.388 2°55.02 13.7 329 7.4 102800 98
2005-03-18 07:24:53 51°14.4 2°54.998 13.9 329 7.3 102790 98
2005-03-18 07:24:57 51°14.409 2°54.983 13.4 328 7.3 102790 98
2005-03-18 07:25:03 51°14.423 2°54.96 13.1 327 7.3 102780 98
2005-03-18 07:25:08 51°14.435 2°54.94 13 326 7.3 102780 98
2005-03-18 07:25:13 51°14.447 2°54.921 12.9 330 7.3 102780 98
2005-03-18 07:25:18 51°14.459 2°54.904 12.9 329 7.3 102780 98
2005-03-18 07:25:22 51°14.47 2°54.889 12.3 326 7.3 102770 98
2005-03-18 07:25:29 51°14.49 2°54.862 13.3 329 7.3 102770 98
2005-03-18 07:25:33 51°14.502 2°54.846 12.3 326 7.2 102780 98
2005-03-18 07:25:37 51°14.514 2°54.831 12.2 328 7.2 102780 98
2005-03-18 07:25:43 51°14.531 2°54.809 13.2 327 7.3 102780 98
2005-03-18 07:25:48 51°14.544 2°54.791 13.3 328 7.3 102780 98
2005-03-18 07:25:53 51°14.56 2°54.771 13.3 332 7.2 102780 98
2005-03-18 07:25:58 51°14.573 2°54.754 13.9 329 7.2 102780 98
2005-03-18 07:26:02 51°14.584 2°54.739 12.7 329 7.1 102790 98
2005-03-18 07:26:07 51°14.601 2°54.719 12.8 328 7.1 102790 98
2005-03-18 07:26:14 51°14.619 2°54.694 12.9 333 7.1 102790 98
2005-03-18 07:26:19 51°14.633 2°54.675 13.8 330 7.1 102790 98
2005-03-18 07:26:23 51°14.646 2°54.658 13.3 332 7.1 102790 98
2005-03-18 07:26:28 51°14.66 2°54.638 13.9 335 7.1 102790 98
2005-03-18 07:26:33 51°14.672 2°54.621 13.2 335 7.1 102790 98
2005-03-18 07:26:38 51°14.686 2°54.598 13.7 333 7.1 102790 98
2005-03-18 07:26:43 51°14.699 2°54.578 13.9 335 7.1 102780 98
2005-03-18 07:26:47 51°14.708 2°54.563 12.3 336 7.1 102780 98
2005-03-18 07:26:53 51°14.724 2°54.536 13.6 335 7.1 102790 98
2005-03-18 07:26:58 51°14.736 2°54.514 14.2 338 7.1 102790 98
2005-03-18 07:27:03 51°14.748 2°54.492 13.9 338 7.1 102780 98
2005-03-18 07:27:07 51°14.757 2°54.474 14 340 7.1 102780 98
2005-03-18 07:27:13 51°14.771 2°54.447 13.6 336 7.1 102780 98
2005-03-18 07:27:18 51°14.781 2°54.428 14 341 7.1 102780 98
2005-03-18 07:27:23 51°14.793 2°54.403 13.5 339 7 102780 98
2005-03-18 07:27:29 51°14.806 2°54.378 14.3 343 7 102780 98
2005-03-18 07:27:33 51°14.816 2°54.357 14 341 7 102780 98
2005-03-18 07:27:38 51°14.827 2°54.335 15 338 7 102780 98
2005-03-18 07:27:43 51°14.838 2°54.312 13.9 343 7 102780 98
2005-03-18 07:27:48 51°14.849 2°54.289 14.5 340 7 102780 98
2005-03-18 07:27:53 51°14.86 2°54.267 13.8 338 7 102780 98
2005-03-18 07:27:58 51°14.87 2°54.243 14.8 343 7 102780 98
2005-03-18 07:28:03 51°14.88 2°54.219 14.1 346 7 102780 98
2005-03-18 07:28:08 51°14.889 2°54.197 14.3 346 7 102780 98
2005-03-18 07:28:14 51°14.899 2°54.167 14.6 343 6.9 102780 98
2005-03-18 07:28:18 51°14.906 2°54.148 14.9 345 6.9 102780 98
2005-03-18 07:28:23 51°14.916 2°54.12 14 342 7 102780 98
2005-03-18 07:28:27 51°14.922 2°54.099 14.7 341 7 102780 98
2005-03-18 07:28:33 51°14.931 2°54.069 14.8 345 6.9 102780 98
2005-03-18 07:28:38 51°14.94 2°54.043 14.6 346 6.9 102780 98
2005-03-18 07:28:43 51°14.948 2°54.017 15.2 346 6.9 102780 98
2005-03-18 07:28:48 51°14.956 2°53.991 16.4 340 6.9 102780 98
2005-03-18 07:28:53 51°14.964 2°53.965 16.2 346 6.9 102780 98
2005-03-18 07:28:58 51°14.972 2°53.94 14.8 340 6.9 102780 98
2005-03-18 07:29:03 51°14.981 2°53.914 15 335 6.9 102780 98
2005-03-18 07:29:08 51°14.988 2°53.89 14.6 337 6.9 102780 98
2005-03-18 07:29:13 51°14.996 2°53.862 15.6 346 6.9 102770 98
2005-03-18 07:29:18 51°15.003 2°53.837 16.4 344 6.9 102770 98
2005-03-18 07:29:23 51°15.011 2°53.809 17.1 341 6.9 102770 98
2005-03-18 07:29:28 51°15.018 2°53.783 16.2 350 6.9 102770 98
2005-03-18 07:29:33 51°15.025 2°53.756 13.8 344 6.9 102770 98
2005-03-18 07:29:38 51°15.032 2°53.73 16.2 345 6.9 102770 98
2005-03-18 07:29:43 51°15.04 2°53.704 16.3 346 6.9 102780 98
2005-03-18 07:29:48 51°15.047 2°53.677 16.2 342 6.9 102780 98
2005-03-18 07:29:53 51°15.054 2°53.651 16.2 342 6.9 102760 98
2005-03-18 07:29:58 51°15.061 2°53.627 15.9 342 6.9 102760 98
2005-03-18 07:30:03 51°15.068 2°53.598 16.1 342 6.9 102770 98
2005-03-18 07:30:07 51°15.074 2°53.577 16.1 340 6.9 102770 98
2005-03-18 07:30:14 51°15.084 2°53.542 15.7 339 6.9 102770 98
2005-03-18 07:30:18 51°15.09 2°53.52 15.2 344 6.9 102770 98
2005-03-18 07:30:23 51°15.097 2°53.493 14.7 343 6.9 102770 98
2005-03-18 07:30:28 51°15.104 2°53.466 15.5 339 6.9 102770 98
2005-03-18 07:30:34 51°15.112 2°53.438 15.4 342 6.9 102780 98
2005-03-18 07:30:39 51°15.12 2°53.411 15.6 342 6.9 102780 98
2005-03-18 07:30:43 51°15.126 2°53.389 16.3 342 6.9 102780 98
2005-03-18 07:30:47 51°15.132 2°53.366 16.2 343 6.9 102780 98
2005-03-18 07:30:54 51°15.142 2°53.328 17.1 340 6.9 102770 98
2005-03-18 07:30:58 51°15.148 2°53.307 16.9 341 6.9 102770 98
2005-03-18 07:31:03 51°15.156 2°53.281 15.7 341 6.8 102780 98
2005-03-18 07:31:08 51°15.164 2°53.254 16.4 341 6.8 102780 98
2005-03-18 07:31:11 51°15.168 2°53.238 17.8 342 6.8 102770 98
2005-03-18 07:31:18 51°15.179 2°53.201 16.8 340 6.8 102770 98
2005-03-18 07:31:24 51°15.187 2°53.172 16.4 342 6.8 102770 99
2005-03-18 07:31:28 51°15.193 2°53.15 16.6 342 6.8 102770 99
2005-03-18 07:31:33 51°15.201 2°53.121 16.6 339 6.9 102760 99
2005-03-18 07:31:38 51°15.209 2°53.095 17.1 343 6.9 102760 99
2005-03-18 07:31:44 51°15.217 2°53.066 16.3 342 6.9 102760 99
2005-03-18 07:31:48 51°15.223 2°53.045 15.6 340 6.9 102760 99
2005-03-18 07:31:54 51°15.232 2°53.012 16.1 337 6.9 102760 99
2005-03-18 07:31:58 51°15.238 2°52.989 15.9 344 6.9 102760 99
2005-03-18 07:32:03 51°15.246 2°52.962 16.6 343 6.8 102770 99
2005-03-18 07:32:09 51°15.254 2°52.933 15.2 342 6.8 102770 99
2005-03-18 07:32:14 51°15.261 2°52.906 15.6 342 6.8 102770 99
2005-03-18 07:32:18 51°15.266 2°52.882 16.7 349 6.8 102770 99
2005-03-18 07:32:23 51°15.272 2°52.854 16.3 347 6.8 102760 99
2005-03-18 07:32:28 51°15.277 2°52.83 16.1 349 6.8 102760 99
2005-03-18 07:32:34 51°15.283 2°52.797 17 347 6.8 102760 99
2005-03-18 07:32:38 51°15.287 2°52.771 17.1 350 6.8 102760 99
2005-03-18 07:32:42 51°15.291 2°52.749 16.8 347 6.8 102770 99
2005-03-18 07:32:48 51°15.296 2°52.718 16.2 347 6.8 102770 99
2005-03-18 07:32:53 51°15.301 2°52.688 17.1 348 6.8 102760 99
2005-03-18 07:32:58 51°15.305 2°52.66 16.3 350 6.8 102760 99
2005-03-18 07:33:04 51°15.31 2°52.629 17.1 348 6.8 102780 99
2005-03-18 07:33:08 51°15.314 2°52.603 16.5 349 6.8 102780 99
2005-03-18 07:33:13 51°15.319 2°52.576 17 350 6.8 102760 99
2005-03-18 07:33:19 51°15.324 2°52.546 17.6 347 6.8 102760 99
2005-03-18 07:33:24 51°15.328 2°52.518 16.4 348 6.8 102770 99
2005-03-18 07:33:29 51°15.333 2°52.49 15.4 351 6.8 102770 99
2005-03-18 07:33:33 51°15.336 2°52.465 16.1 349 6.8 102770 99
2005-03-18 07:33:39 51°15.341 2°52.434 15.8 350 6.8 102770 99
2005-03-18 07:33:43 51°15.345 2°52.409 16.1 348 6.8 102780 99
2005-03-18 07:33:49 51°15.35 2°52.379 15.9 347 6.8 102780 99
2005-03-18 07:33:54 51°15.355 2°52.351 16.2 349 6.8 102770 99
2005-03-18 07:33:58 51°15.359 2°52.326 15.5 348 6.8 102770 99
2005-03-18 07:34:04 51°15.363 2°52.296 16.4 344 6.8 102780 99
2005-03-18 07:34:08 51°15.367 2°52.274 14.6 346 6.8 102780 99
2005-03-18 07:34:13 51°15.372 2°52.243 16.4 349 6.8 102760 99
2005-03-18 07:34:18 51°15.377 2°52.216 16.2 347 6.8 102760 99
2005-03-18 07:34:23 51°15.381 2°52.188 17.6 350 6.8 102770 99
2005-03-18 07:34:29 51°15.387 2°52.158 16.2 346 6.8 102770 99
2005-03-18 07:34:34 51°15.392 2°52.131 16.1 348 6.8 102770 99
2005-03-18 07:34:38 51°15.396 2°52.106 16.5 349 6.8 102770 99
2005-03-18 07:34:43 51°15.401 2°52.078 17.9 348 6.8 102770 99
2005-03-18 07:34:49 51°15.406 2°52.047 14.7 349 6.8 102770 99
2005-03-18 07:34:54 51°15.411 2°52.02 17.2 349 6.8 102780 99
2005-03-18 07:34:58 51°15.416 2°51.995 17 348 6.8 102780 99
2005-03-18 07:35:03 51°15.421 2°51.968 16.3 348 6.8 102770 99
2005-03-18 07:35:08 51°15.426 2°51.94 15.7 349 6.8 102770 99
2005-03-18 07:35:13 51°15.431 2°51.913 16.3 348 6.8 102760 99
2005-03-18 07:35:19 51°15.437 2°51.882 16.5 351 6.8 102760 99
2005-03-18 07:35:24 51°15.442 2°51.855 15.8 351 6.7 102770 99
2005-03-18 07:35:28 51°15.447 2°51.83 16 351 6.7 102770 99
2005-03-18 07:35:33 51°15.452 2°51.803 14.9 348 6.8 102780 99
2005-03-18 07:35:38 51°15.457 2°51.779 15.5 351 6.8 102780 99
2005-03-18 07:35:42 51°15.462 2°51.754 16.1 349 6.8 102770 99
2005-03-18 07:35:47 51°15.467 2°51.726 14.8 350 6.8 102770 99
2005-03-18 07:35:54 51°15.473 2°51.691 16.2 347 6.8 102780 99
2005-03-18 07:35:59 51°15.478 2°51.664 16.2 348 6.8 102780 99
2005-03-18 07:36:03 51°15.483 2°51.639 16.1 349 6.7 102780 99
2005-03-18 07:36:09 51°15.488 2°51.609 14.4 348 6.7 102780 99
2005-03-18 07:36:13 51°15.493 2°51.584 15.7 349 6.7 102780 99
2005-03-18 07:36:18 51°15.498 2°51.557 15.1 350 6.7 102780 99
2005-03-18 07:36:23 51°15.503 2°51.53 15.1 350 6.7 102770 99
2005-03-18 07:36:29 51°15.508 2°51.499 15.5 347 6.7 102770 99
2005-03-18 07:36:34 51°15.513 2°51.472 16.4 349 6.7 102790 99
2005-03-18 07:36:38 51°15.517 2°51.447 16.4 350 6.7 102790 99
2005-03-18 07:36:42 51°15.521 2°51.428 16.9 347 6.7 102780 99
2005-03-18 07:36:48 51°15.527 2°51.392 17.1 348 6.7 102780 99
2005-03-18 07:36:52 51°15.531 2°51.37 15.6 350 6.7 102780 99
2005-03-18 07:36:59 51°15.538 2°51.335 15.9 348 6.7 102780 99
2005-03-18 07:37:03 51°15.542 2°51.311 16.7 351 6.7 102780 99
2005-03-18 07:37:08 51°15.547 2°51.282 16.2 349 6.7 102780 99
2005-03-18 07:37:14 51°15.552 2°51.253 16.3 350 6.7 102780 99
2005-03-18 07:37:18 51°15.556 2°51.228 17.2 348 6.7 102780 99
2005-03-18 07:37:24 51°15.561 2°51.197 17.1 347 6.7 102770 99
2005-03-18 07:37:29 51°15.565 2°51.17 16.7 350 6.7 102770 99
2005-03-18 07:37:33 51°15.568 2°51.147 15.4 349 6.7 102780 99
2005-03-18 07:37:38 51°15.573 2°51.119 15.5 351 6.7 102780 99
2005-03-18 07:37:42 51°15.576 2°51.097 16.4 351 6.7 102770 99
2005-03-18 07:37:48 51°15.581 2°51.063 15.6 353 6.7 102770 99
2005-03-18 07:37:54 51°15.585 2°51.03 15.2 352 6.7 102770 99
2005-03-18 07:37:58 51°15.588 2°51.007 16.8 352 6.7 102770 99
2005-03-18 07:38:04 51°15.593 2°50.973 15.9 353 6.7 102780 99
2005-03-18 07:38:08 51°15.596 2°50.95 16.3 348 6.7 102780 99
2005-03-18 07:38:13 51°15.6 2°50.919 15.7 351 6.7 102790 99
2005-03-18 07:38:19 51°15.604 2°50.888 15.9 352 6.7 102790 99
2005-03-18 07:38:23 51°15.607 2°50.863 15.8 355 6.7 102770 99
2005-03-18 07:38:29 51°15.611 2°50.832 15.3 349 6.7 102770 99
2005-03-18 07:38:34 51°15.614 2°50.805 15.5 350 6.7 102780 99
2005-03-18 07:38:39 51°15.617 2°50.776 15.9 352 6.7 102780 99
2005-03-18 07:38:43 51°15.62 2°50.754 16.5 352 6.7 102780 99
2005-03-18 07:38:49 51°15.624 2°50.72 15.5 349 6.7 102780 99
2005-03-18 07:38:54 51°15.627 2°50.69 16 350 6.7 102790 99
2005-03-18 07:38:59 51°15.63 2°50.664 17.5 350 6.7 102790 99
2005-03-18 07:39:04 51°15.634 2°50.637 17.2 349 6.7 102780 99
2005-03-18 07:39:09 51°15.637 2°50.609 15.8 352 6.7 102780 99
2005-03-18 07:39:14 51°15.64 2°50.581 16.2 354 6.7 102790 99
2005-03-18 07:39:19 51°15.643 2°50.553 15.6 352 6.7 102790 99
2005-03-18 07:39:23 51°15.647 2°50.528 17.1 356 6.6 102780 99
2005-03-18 07:39:28 51°15.649 2°50.503 17 349 6.6 102780 99
2005-03-18 07:39:33 51°15.653 2°50.472 15.1 353 6.7 102780 99
2005-03-18 07:39:38 51°15.657 2°50.444 16.3 351 6.7 102780 99
2005-03-18 07:39:44 51°15.661 2°50.413 17.1 354 6.7 102790 99
2005-03-18 07:39:48 51°15.664 2°50.39 15.8 351 6.7 102790 99
2005-03-18 07:39:53 51°15.667 2°50.361 15.9 350 6.7 102790 99
2005-03-18 07:39:58 51°15.671 2°50.333 16.1 356 6.7 102790 99
2005-03-18 07:40:03 51°15.674 2°50.302 16.6 353 6.7 102790 99
2005-03-18 07:40:09 51°15.678 2°50.271 16 355 6.7 102790 99
2005-03-18 07:40:14 51°15.681 2°50.243 15.1 352 6.7 102780 99
2005-03-18 07:40:18 51°15.685 2°50.218 16.7 352 6.7 102780 99
2005-03-18 07:40:23 51°15.688 2°50.19 15.8 353 6.7 102780 99
2005-03-18 07:40:28 51°15.692 2°50.162 16.6 351 6.7 102780 99
2005-03-18 07:40:33 51°15.695 2°50.134 17.9 351 6.7 102790 99
2005-03-18 07:40:38 51°15.698 2°50.109 16.9 354 6.7 102790 99
2005-03-18 07:40:44 51°15.703 2°50.075 16.1 352 6.7 102790 99
2005-03-18 07:40:48 51°15.705 2°50.052 16.8 348 6.7 102790 99
2005-03-18 07:40:54 51°15.71 2°50.019 15.9 353 6.7 102790 99
2005-03-18 07:40:58 51°15.713 2°49.994 17.2 352 6.7 102790 99
2005-03-18 07:41:03 51°15.716 2°49.966 15.4 356 6.7 102780 99
2005-03-18 07:41:08 51°15.719 2°49.94 16.3 351 6.7 102780 99
2005-03-18 07:41:14 51°15.723 2°49.907 15.6 352 6.7 102790 99
2005-03-18 07:41:18 51°15.726 2°49.882 16.5 353 6.7 102790 99
2005-03-18 07:41:23 51°15.729 2°49.853 14.9 353 6.7 102790 99
2005-03-18 07:41:28 51°15.732 2°49.824 16.4 349 6.7 102790 99
2005-03-18 07:41:34 51°15.734 2°49.794 17.4 356 6.7 102780 99
2005-03-18 07:41:38 51°15.737 2°49.768 15.2 353 6.7 102780 99
2005-03-18 07:41:43 51°15.738 2°49.74 15.9 354 6.7 102790 99
2005-03-18 07:41:48 51°15.74 2°49.715 16.5 358 6.7 102790 99
2005-03-18 07:41:54 51°15.742 2°49.681 17.8 354 6.7 102790 99
2005-03-18 07:41:59 51°15.744 2°49.652 17.1 358 6.7 102790 99
2005-03-18 07:42:03 51°15.745 2°49.63 16.8 353 6.7 102790 99
2005-03-18 07:42:08 51°15.747 2°49.598 16.1 356 6.7 102790 99
2005-03-18 07:42:14 51°15.749 2°49.568 16.2 355 6.7 102790 99
2005-03-18 07:42:19 51°15.751 2°49.539 17.7 352 6.7 102790 99
2005-03-18 07:42:23 51°15.753 2°49.514 17.3 354 6.7 102790 99
2005-03-18 07:42:29 51°15.755 2°49.482 17.5 357 6.7 102790 99
2005-03-18 07:42:34 51°15.757 2°49.454 16.2 354 6.7 102790 99
2005-03-18 07:42:38 51°15.759 2°49.428 16.7 356 6.7 102790 99
2005-03-18 07:42:42 51°15.76 2°49.406 16.1 357 6.7 102790 99
2005-03-18 07:42:48 51°15.762 2°49.371 16.3 357 6.7 102790 99
2005-03-18 07:42:53 51°15.764 2°49.343 15.9 357 6.7 102780 99
2005-03-18 07:42:58 51°15.765 2°49.318 16.5 356 6.7 102780 99
2005-03-18 07:43:03 51°15.767 2°49.286 16.3 354 6.7 102780 99
2005-03-18 07:43:09 51°15.769 2°49.254 16.2 353 6.7 102780 99
2005-03-18 07:43:14 51°15.771 2°49.223 15.7 354 6.7 102790 99
2005-03-18 07:43:18 51°15.773 2°49.2 17.1 355 6.7 102790 99
2005-03-18 07:43:23 51°15.774 2°49.172 17.3 357 6.7 102800 99
2005-03-18 07:43:28 51°15.776 2°49.143 15.9 354 6.7 102800 99
2005-03-18 07:43:34 51°15.778 2°49.109 16.6 358 6.7 102790 99
2005-03-18 07:43:38 51°15.779 2°49.086 15.8 353 6.7 102790 99
2005-03-18 07:43:43 51°15.781 2°49.058 16.3 357 6.7 102800 99
2005-03-18 07:43:48 51°15.782 2°49.032 15.2 356 6.7 102800 99
2005-03-18 07:43:54 51°15.785 2°48.997 15.5 354 6.7 102780 99
2005-03-18 07:43:58 51°15.786 2°48.972 16.5 351 6.7 102780 99
2005-03-18 07:44:04 51°15.788 2°48.94 16.7 355 6.6 102790 99
2005-03-18 07:44:09 51°15.79 2°48.911 16.5 354 6.6 102790 99
2005-03-18 07:44:14 51°15.792 2°48.883 17 353 6.6 102790 99
2005-03-18 07:44:19 51°15.794 2°48.854 16.9 354 6.6 102790 99
2005-03-18 07:44:24 51°15.795 2°48.826 16.4 353 6.6 102800 99
2005-03-18 07:44:28 51°15.797 2°48.803 15.6 353 6.6 102800 99
2005-03-18 07:44:33 51°15.798 2°48.772 16.6 354 6.6 102800 99
2005-03-18 07:44:39 51°15.8 2°48.74 18.5 353 6.6 102800 99
2005-03-18 07:44:44 51°15.802 2°48.711 17.1 350 6.6 102800 99
2005-03-18 07:44:48 51°15.803 2°48.688 17.5 351 6.6 102800 99
2005-03-18 07:44:54 51°15.805 2°48.654 16.1 351 6.6 102800 99
2005-03-18 07:44:58 51°15.807 2°48.628 16 349 6.6 102800 99
2005-03-18 07:45:04 51°15.809 2°48.596 15.8 354 6.6 102780 99
2005-03-18 07:45:08 51°15.81 2°48.57 17.4 354 6.6 102780 99
2005-03-18 07:45:13 51°15.812 2°48.542 16.9 355 6.6 102780 99
2005-03-18 07:45:18 51°15.814 2°48.513 15.9 349 6.6 102780 99
2005-03-18 07:45:23 51°15.816 2°48.484 15.9 350 6.7 102770 100
2005-03-18 07:45:29 51°15.818 2°48.453 16.4 352 6.7 102770 100
2005-03-18 07:45:34 51°15.82 2°48.425 16.8 348 6.7 102780 99
2005-03-18 07:45:38 51°15.822 2°48.399 15.8 353 6.7 102780 99
2005-03-18 07:45:44 51°15.824 2°48.367 16.5 353 6.6 102780 100
2005-03-18 07:45:48 51°15.826 2°48.341 16.6 353 6.6 102780 100
2005-03-18 07:45:53 51°15.828 2°48.313 16.9 349 6.6 102780 100
2005-03-18 07:45:59 51°15.83 2°48.281 17.4 350 6.6 102780 100
2005-03-18 07:46:03 51°15.832 2°48.255 17.3 352 6.6 102780 100
2005-03-18 07:46:08 51°15.834 2°48.227 18.8 349 6.6 102780 100
2005-03-18 07:46:14 51°15.836 2°48.196 17.9 349 6.6 102770 100
2005-03-18 07:46:19 51°15.837 2°48.167 17.4 349 6.6 102770 100
2005-03-18 07:46:23 51°15.839 2°48.142 17.2 351 6.6 102780 100
2005-03-18 07:46:28 51°15.841 2°48.113 16.4 355 6.6 102780 100
2005-03-18 07:46:34 51°15.843 2°48.082 16.6 350 6.6 102790 100
2005-03-18 07:46:39 51°15.845 2°48.053 16.5 350 6.6 102790 100
2005-03-18 07:46:43 51°15.847 2°48.028 16.3 347 6.6 102760 100
2005-03-18 07:46:48 51°15.849 2°47.999 16.8 348 6.6 102760 100
2005-03-18 07:46:53 51°15.851 2°47.971 15.3 352 6.6 102770 100
2005-03-18 07:46:59 51°15.853 2°47.939 17.4 350 6.6 102770 100
2005-03-18 07:47:03 51°15.855 2°47.913 17.2 352 6.6 102780 100
2005-03-18 07:47:08 51°15.856 2°47.888 16.9 348 6.6 102780 100
2005-03-18 07:47:13 51°15.858 2°47.856 17.1 350 6.6 102770 100
2005-03-18 07:47:18 51°15.86 2°47.828 15.4 350 6.6 102770 100
2005-03-18 07:47:24 51°15.863 2°47.796 16.2 357 6.6 102780 100
2005-03-18 07:47:29 51°15.865 2°47.768 16.9 349 6.6 102780 100
2005-03-18 07:47:34 51°15.867 2°47.739 17.6 345 6.6 102770 100
2005-03-18 07:47:39 51°15.869 2°47.711 16.4 352 6.6 102770 100
2005-03-18 07:47:44 51°15.871 2°47.682 15.9 348 6.6 102770 100
2005-03-18 07:47:49 51°15.873 2°47.654 18 352 6.6 102770 100
2005-03-18 07:47:54 51°15.875 2°47.627 17.2 352 6.6 102790 100
2005-03-18 07:47:59 51°15.876 2°47.598 16 352 6.6 102790 100
2005-03-18 07:48:03 51°15.878 2°47.573 15.9 351 6.6 102770 100
2005-03-18 07:48:08 51°15.88 2°47.544 16.4 350 6.6 102770 100
2005-03-18 07:48:14 51°15.883 2°47.513 16.5 349 6.6 102780 100
2005-03-18 07:48:18 51°15.886 2°47.488 16.3 351 6.6 102780 100
2005-03-18 07:48:23 51°15.889 2°47.46 15 348 6.6 102780 100
2005-03-18 07:48:28 51°15.891 2°47.431 16.7 352 6.6 102780 100
2005-03-18 07:48:33 51°15.893 2°47.404 16.4 353 6.6 102780 100
2005-03-18 07:48:39 51°15.894 2°47.373 16 352 6.6 102780 100
2005-03-18 07:48:43 51°15.895 2°47.347 16.9 350 6.6 102770 100
2005-03-18 07:48:48 51°15.896 2°47.321 15.8 353 6.6 102770 100
2005-03-18 07:48:54 51°15.897 2°47.287 16 353 6.6 102770 100
2005-03-18 07:48:59 51°15.898 2°47.259 16.3 352 6.6 102770 100
2005-03-18 07:49:03 51°15.899 2°47.237 16.2 353 6.6 102770 100
2005-03-18 07:49:08 51°15.9 2°47.205 15.9 352 6.6 102770 100
2005-03-18 07:49:14 51°15.901 2°47.175 16.8 353 6.6 102770 100
2005-03-18 07:49:19 51°15.902 2°47.146 16.9 351 6.6 102770 100
2005-03-18 07:49:23 51°15.903 2°47.121 16.5 355 6.6 102780 100
2005-03-18 07:49:29 51°15.904 2°47.089 14.9 350 6.6 102780 100
2005-03-18 07:49:34 51°15.905 2°47.061 14.4 352 6.6 102770 100
2005-03-18 07:49:38 51°15.905 2°47.039 16.1 352 6.6 102770 100
2005-03-18 07:49:43 51°15.906 2°47.008 16.2 350 6.6 102770 100
2005-03-18 07:49:48 51°15.907 2°46.979 14 351 6.6 102770 100
2005-03-18 07:49:53 51°15.908 2°46.951 15.2 353 6.6 102770 100
2005-03-18 07:49:58 51°15.909 2°46.922 15.3 354 6.6 102770 100
2005-03-18 07:50:03 51°15.909 2°46.894 16.5 356 6.6 102780 100
2005-03-18 07:50:08 51°15.91 2°46.868 14.3 352 6.6 102780 100
2005-03-18 07:50:14 51°15.911 2°46.831 15.3 352 6.6 102780 100
2005-03-18 07:50:18 51°15.912 2°46.809 16.3 354 6.6 102780 100
2005-03-18 07:50:24 51°15.913 2°46.777 16.9 350 6.6 102790 100
2005-03-18 07:50:28 51°15.914 2°46.751 15.1 353 6.6 102790 100
2005-03-18 07:50:32 51°15.915 2°46.728 15.4 351 6.6 102770 100
2005-03-18 07:50:38 51°15.916 2°46.695 15.5 351 6.6 102770 100
2005-03-18 07:50:44 51°15.917 2°46.663 15.2 350 6.5 102790 100
2005-03-18 07:50:49 51°15.918 2°46.635 14.5 353 6.5 102790 100
2005-03-18 07:50:52 51°15.919 2°46.615 15.9 353 6.5 102770 100
2005-03-18 07:50:58 51°15.92 2°46.581 16 355 6.5 102770 100
2005-03-18 07:51:04 51°15.921 2°46.55 16.3 355 6.5 102780 100
2005-03-18 07:51:09 51°15.921 2°46.522 15.3 353 6.5 102780 100
2005-03-18 07:51:12 51°15.922 2°46.502 15.8 353 6.5 102780 100
2005-03-18 07:51:19 51°15.923 2°46.465 16.2 350 6.5 102780 100
2005-03-18 07:51:23 51°15.923 2°46.44 16.2 353 6.5 102780 100
2005-03-18 07:51:28 51°15.924 2°46.411 16.2 350 6.5 102780 100
2005-03-18 07:51:34 51°15.925 2°46.381 15.5 355 6.5 102770 100
2005-03-18 07:51:38 51°15.926 2°46.356 17 352 6.5 102770 100
2005-03-18 07:51:43 51°15.926 2°46.328 16.5 355 6.5 102770 100
2005-03-18 07:51:49 51°15.927 2°46.296 15.6 350 6.5 102770 100
2005-03-18 07:51:53 51°15.929 2°46.271 16.4 346 6.5 102790 100
2005-03-18 07:51:59 51°15.934 2°46.241 15.1 345 6.5 102790 100
2005-03-18 07:52:04 51°15.939 2°46.215 15.5 344 6.5 102780 100
2005-03-18 07:52:08 51°15.945 2°46.191 15.4 336 6.5 102780 100
2005-03-18 07:52:14 51°15.954 2°46.161 15.8 337 6.5 102780 100
2005-03-18 07:52:18 51°15.961 2°46.14 15.9 337 6.5 102780 100
2005-03-18 07:52:23 51°15.969 2°46.116 14.7 340 6.5 102780 100
2005-03-18 07:52:29 51°15.979 2°46.088 15.6 336 6.5 102780 100
2005-03-18 07:52:34 51°15.988 2°46.063 15.4 333 6.5 102770 100
2005-03-18 07:52:38 51°15.995 2°46.044 15.1 336 6.5 102770 100
2005-03-18 07:52:42 51°16.003 2°46.022 14.9 333 6.5 102760 100
2005-03-18 07:52:48 51°16.015 2°45.992 14.7 333 6.5 102760 100
2005-03-18 07:52:54 51°16.026 2°45.966 15.1 332 6.5 102780 100
2005-03-18 07:52:59 51°16.037 2°45.941 14.8 335 6.5 102780 100
2005-03-18 07:53:03 51°16.046 2°45.92 16.2 334 6.6 102770 100
2005-03-18 07:53:09 51°16.057 2°45.894 16.6 332 6.6 102770 100
2005-03-18 07:53:14 51°16.068 2°45.87 15.3 334 6.5 102770 100
2005-03-18 07:53:19 51°16.078 2°45.845 15.1 335 6.5 102770 100
2005-03-18 07:53:23 51°16.087 2°45.824 15 335 6.5 102760 100
2005-03-18 07:53:29 51°16.1 2°45.795 15.7 337 6.5 102760 100
2005-03-18 07:53:34 51°16.109 2°45.773 14.8 335 6.5 102770 100
2005-03-18 07:53:39 51°16.12 2°45.75 15.3 337 6.5 102770 100
2005-03-18 07:53:44 51°16.131 2°45.725 15.6 334 6.6 102760 100
2005-03-18 07:53:48 51°16.14 2°45.704 16.2 338 6.6 102760 100
2005-03-18 07:53:53 51°16.15 2°45.68 16 333 6.5 102760 100
2005-03-18 07:53:58 51°16.161 2°45.656 14.6 336 6.5 102760 100
2005-03-18 07:54:03 51°16.172 2°45.632 15.9 336 6.5 102760 100
2005-03-18 07:54:08 51°16.183 2°45.608 15 333 6.5 102760 100
2005-03-18 07:54:13 51°16.193 2°45.585 15.7 337 6.5 102770 100
2005-03-18 07:54:18 51°16.204 2°45.561 14.1 332 6.5 102770 100
2005-03-18 07:54:23 51°16.214 2°45.537 14.2 335 6.5 102760 100
2005-03-18 07:54:29 51°16.226 2°45.51 14.9 332 6.5 102760 100
2005-03-18 07:54:34 51°16.236 2°45.486 16 334 6.5 102770 100
2005-03-18 07:54:38 51°16.246 2°45.464 15.9 335 6.5 102770 100
2005-03-18 07:54:43 51°16.256 2°45.441 15 336 6.5 102770 100
2005-03-18 07:54:48 51°16.266 2°45.419 15.8 337 6.5 102770 100
2005-03-18 07:54:54 51°16.278 2°45.389 15.5 337 6.5 102770 100
2005-03-18 07:54:59 51°16.289 2°45.365 15.6 334 6.5 102770 100
2005-03-18 07:55:04 51°16.299 2°45.339 15 336 6.5 102760 100
2005-03-18 07:55:08 51°16.309 2°45.317 15.8 336 6.5 102760 100
2005-03-18 07:55:14 51°16.32 2°45.291 14.6 337 6.5 102770 100
2005-03-18 07:55:18 51°16.33 2°45.269 16.7 334 6.5 102770 100
2005-03-18 07:55:24 51°16.341 2°45.241 15.5 333 6.6 102770 100
2005-03-18 07:55:28 51°16.351 2°45.22 16 331 6.6 102770 100
2005-03-18 07:55:34 51°16.363 2°45.193 16 335 6.5 102760 100
2005-03-18 07:55:39 51°16.373 2°45.169 16.4 336 6.5 102760 100
2005-03-18 07:55:44 51°16.384 2°45.144 15.9 332 6.5 102780 100
2005-03-18 07:55:48 51°16.392 2°45.125 15.2 330 6.5 102780 100
2005-03-18 07:55:53 51°16.403 2°45.098 14.4 339 6.5 102770 100
2005-03-18 07:55:58 51°16.414 2°45.074 15.4 338 6.5 102770 100
2005-03-18 07:56:04 51°16.425 2°45.047 15.5 333 6.5 102760 100
2005-03-18 07:56:08 51°16.434 2°45.028 15.1 335 6.5 102760 100
2005-03-18 07:56:13 51°16.446 2°45.001 15 333 6.6 102750 100
2005-03-18 07:56:18 51°16.456 2°44.976 16.1 333 6.6 102750 100
2005-03-18 07:56:24 51°16.468 2°44.949 14.4 332 6.5 102760 100
2005-03-18 07:56:29 51°16.479 2°44.926 15.4 335 6.5 102760 100
2005-03-18 07:56:34 51°16.49 2°44.901 15.8 331 6.5 102770 100
2005-03-18 07:56:38 51°16.499 2°44.879 15.1 334 6.5 102770 100
2005-03-18 07:56:44 51°16.511 2°44.853 13.7 333 6.5 102770 100
2005-03-18 07:56:49 51°16.522 2°44.829 14.1 333 6.5 102770 100
2005-03-18 07:56:54 51°16.533 2°44.805 15 333 6.5 102760 100
2005-03-18 07:56:58 51°16.543 2°44.783 15.2 331 6.5 102760 100
2005-03-18 07:57:04 51°16.555 2°44.757 14.8 332 6.5 102770 100
2005-03-18 07:57:08 51°16.565 2°44.734 15.6 333 6.5 102770 100
2005-03-18 07:57:14 51°16.577 2°44.709 15 333 6.5 102770 100
2005-03-18 07:57:19 51°16.588 2°44.684 14.5 332 6.5 102770 100
2005-03-18 07:57:23 51°16.598 2°44.663 15.6 335 6.5 102770 100
2005-03-18 07:57:28 51°16.609 2°44.638 15.1 330 6.5 102770 100
2005-03-18 07:57:33 51°16.62 2°44.614 14.4 333 6.5 102770 100
2005-03-18 07:57:38 51°16.629 2°44.593 15 334 6.5 102770 100
2005-03-18 07:57:43 51°16.641 2°44.565 15.9 332 6.5 102780 100
2005-03-18 07:57:49 51°16.653 2°44.538 14.3 334 6.5 102780 100
2005-03-18 07:57:54 51°16.665 2°44.513 15.4 335 6.5 102770 100
2005-03-18 07:57:58 51°16.674 2°44.493 13.8 337 6.5 102770 100
2005-03-18 07:58:04 51°16.686 2°44.466 13.6 335 6.5 102770 100
2005-03-18 07:58:08 51°16.696 2°44.444 14.1 334 6.5 102760 100
2005-03-18 07:58:14 51°16.708 2°44.418 14.9 333 6.5 102760 100
2005-03-18 07:58:19 51°16.72 2°44.391 14.9 332 6.5 102760 100
2005-03-18 07:58:24 51°16.729 2°44.368 15.6 333 6.5 102780 100
2005-03-18 07:58:28 51°16.74 2°44.346 14.2 337 6.5 102770 100
2005-03-18 07:58:34 51°16.752 2°44.32 17.2 329 6.5 102770 100
2005-03-18 07:58:38 51°16.762 2°44.298 15.3 331 6.5 102770 100
2005-03-18 07:58:44 51°16.774 2°44.272 15.4 336 6.5 102770 100
2005-03-18 07:58:48 51°16.784 2°44.249 16.3 334 6.5 102770 100
2005-03-18 07:58:54 51°16.797 2°44.22 16.3 333 6.5 102770 100
2005-03-18 07:58:58 51°16.806 2°44.202 15.6 333 6.5 102770 100
2005-03-18 07:59:04 51°16.818 2°44.175 15.3 335 6.5 102760 100
2005-03-18 07:59:08 51°16.826 2°44.156 14.7 332 6.5 102780 100
2005-03-18 07:59:14 51°16.839 2°44.127 16.2 334 6.5 102780 100
2005-03-18 07:59:19 51°16.85 2°44.103 14.5 332 6.5 102780 100
2005-03-18 07:59:24 51°16.86 2°44.079 15.8 333 6.5 102770 100
2005-03-18 07:59:28 51°16.87 2°44.056 15.3 332 6.5 102760 100
2005-03-18 07:59:34 51°16.882 2°44.03 14.9 329 6.5 102760 100
2005-03-18 07:59:38 51°16.892 2°44.008 16.6 330 6.5 102760 100
2005-03-18 07:59:43 51°16.902 2°43.984 16.1 335 6.5 102770 100
2005-03-18 07:59:48 51°16.913 2°43.959 15.8 335 6.5 102770 100
2005-03-18 07:59:54 51°16.925 2°43.933 15 334 6.5 102770 100
2005-03-18 07:59:58 51°16.933 2°43.913 15.1 333 6.5 102770 100
2005-03-18 08:00:04 51°16.946 2°43.884 15.9 331 6.5 102770 100
2005-03-18 08:00:08 51°16.954 2°43.864 15.5 331 6.5 102770 100
2005-03-18 08:00:13 51°16.966 2°43.838 15.1 335 6.5 102760 100
2005-03-18 08:00:19 51°16.978 2°43.811 15.1 338 6.5 102760 100
2005-03-18 08:00:22 51°16.985 2°43.794 15.6 335 6.5 102770 100
2005-03-18 08:00:28 51°16.997 2°43.767 15.8 335 6.5 102770 100
2005-03-18 08:00:34 51°17.01 2°43.739 15.5 333 6.5 102770 100
2005-03-18 08:00:39 51°17.021 2°43.714 16.9 330 6.5 102770 100
2005-03-18 08:00:44 51°17.031 2°43.691 16.4 336 6.5 102770 100
2005-03-18 08:00:48 51°17.04 2°43.671 15.8 328 6.5 102760 100
2005-03-18 08:00:54 51°17.054 2°43.64 14.8 335 6.5 102760 100
2005-03-18 08:00:58 51°17.062 2°43.62 15.7 332 6.5 102760 100
2005-03-18 08:01:04 51°17.074 2°43.594 17.2 334 6.5 102770 100
2005-03-18 08:01:08 51°17.083 2°43.574 16 330 6.5 102770 100
2005-03-18 08:01:14 51°17.095 2°43.546 18.9 332 6.5 102770 100
2005-03-18 08:01:18 51°17.105 2°43.524 17.2 334 6.5 102770 100
2005-03-18 08:01:24 51°17.116 2°43.497 15.4 336 6.5 102760 100
2005-03-18 08:01:29 51°17.128 2°43.473 15.5 334 6.5 102760 100
2005-03-18 08:01:34 51°17.138 2°43.449 15.4 334 6.5 102750 100
2005-03-18 08:01:38 51°17.148 2°43.427 15.3 335 6.5 102750 100
2005-03-18 08:01:44 51°17.159 2°43.4 16.1 332 6.5 102750 100
2005-03-18 08:01:49 51°17.17 2°43.375 17.2 335 6.5 102750 100
2005-03-18 08:01:54 51°17.181 2°43.352 16.7 333 6.5 102770 100
2005-03-18 08:01:59 51°17.192 2°43.327 16.5 331 6.5 102770 100
2005-03-18 08:02:04 51°17.202 2°43.303 15.9 333 6.5 102770 100
2005-03-18 08:02:08 51°17.211 2°43.284 16.6 330 6.5 102760 100
2005-03-18 08:02:14 51°17.224 2°43.253 15.1 328 6.5 102760 100
2005-03-18 08:02:18 51°17.233 2°43.233 16.2 332 6.5 102780 100
2005-03-18 08:02:24 51°17.245 2°43.207 17.3 333 6.5 102780 100
2005-03-18 08:02:29 51°17.256 2°43.182 16.5 330 6.5 102780 100
2005-03-18 08:02:34 51°17.266 2°43.158 16.2 330 6.5 102760 100
2005-03-18 08:02:39 51°17.276 2°43.134 16.1 330 6.5 102760 100
2005-03-18 08:02:43 51°17.286 2°43.113 16.9 332 6.5 102760 100
2005-03-18 08:02:48 51°17.297 2°43.089 15.4 332 6.5 102750 100
2005-03-18 08:02:54 51°17.309 2°43.063 15.5 333 6.5 102750 100
2005-03-18 08:02:58 51°17.318 2°43.042 16.2 331 6.5 102750 100
2005-03-18 08:03:04 51°17.33 2°43.016 16 336 6.5 102760 100
2005-03-18 08:03:08 51°17.339 2°42.993 16.8 330 6.5 102760 100
2005-03-18 08:03:14 51°17.351 2°42.967 14.2 333 6.5 102750 100
2005-03-18 08:03:19 51°17.361 2°42.944 14.6 334 6.5 102750 100
2005-03-18 08:03:24 51°17.371 2°42.919 14.8 329 6.5 102760 100
2005-03-18 08:03:29 51°17.382 2°42.896 14.9 333 6.5 102770 100
2005-03-18 08:03:34 51°17.393 2°42.872 16.1 331 6.5 102770 100
2005-03-18 08:03:39 51°17.404 2°42.849 15.8 330 6.5 102770 100
2005-03-18 08:03:44 51°17.415 2°42.825 16.4 333 6.5 102760 100
2005-03-18 08:03:48 51°17.425 2°42.803 14.6 333 6.5 102740 100
2005-03-18 08:03:54 51°17.437 2°42.777 15.5 333 6.5 102740 100
2005-03-18 08:03:58 51°17.446 2°42.755 15.7 333 6.5 102740 100
2005-03-18 08:04:02 51°17.454 2°42.739 15.2 329 6.5 102740 100
2005-03-18 08:04:09 51°17.47 2°42.705 16.1 332 6.5 102740 100
2005-03-18 08:04:14 51°17.481 2°42.681 16 330 6.5 102750 100
2005-03-18 08:04:19 51°17.492 2°42.656 16.6 330 6.5 102750 100
2005-03-18 08:04:24 51°17.503 2°42.633 15.2 332 6.4 102750 100
2005-03-18 08:04:28 51°17.513 2°42.611 15.7 332 6.5 102730 100
2005-03-18 08:04:34 51°17.525 2°42.585 13.9 333 6.5 102730 100
2005-03-18 08:04:38 51°17.535 2°42.564 15.9 334 6.5 102730 100
2005-03-18 08:04:42 51°17.544 2°42.545 15.7 334 6.5 102760 100
2005-03-18 08:04:48 51°17.556 2°42.519 15.8 334 6.5 102760 100
2005-03-18 08:04:54 51°17.57 2°42.49 16.3 331 6.4 102780 100
2005-03-18 08:04:59 51°17.581 2°42.466 16.8 333 6.4 102780 100
2005-03-18 08:05:04 51°17.592 2°42.442 14.9 331 6.4 102760 100
2005-03-18 08:05:08 51°17.601 2°42.423 15.4 331 6.4 102760 100
2005-03-18 08:05:14 51°17.615 2°42.392 15.2 335 6.4 102760 100
2005-03-18 08:05:18 51°17.624 2°42.373 16 329 6.4 102770 100
2005-03-18 08:05:24 51°17.637 2°42.347 16.8 334 6.4 102770 100
2005-03-18 08:05:28 51°17.646 2°42.328 15.7 331 6.4 102760 100
2005-03-18 08:05:34 51°17.66 2°42.3 16 329 6.4 102760 100
2005-03-18 08:05:38 51°17.669 2°42.281 15.5 332 6.4 102760 100
2005-03-18 08:05:44 51°17.683 2°42.252 14.1 332 6.4 102760 100
2005-03-18 08:05:48 51°17.693 2°42.23 16 328 6.4 102760 100
2005-03-18 08:05:54 51°17.706 2°42.204 15.3 330 6.4 102770 100
2005-03-18 08:05:58 51°17.716 2°42.183 16.4 330 6.4 102760 100
2005-03-18 08:06:04 51°17.729 2°42.157 17.7 332 6.4 102760 100
2005-03-18 08:06:08 51°17.738 2°42.135 17.4 328 6.4 102770 100
2005-03-18 08:06:14 51°17.75 2°42.11 16.1 332 6.4 102770 100
2005-03-18 08:06:19 51°17.761 2°42.085 16.2 331 6.4 102770 100
2005-03-18 08:06:23 51°17.77 2°42.064 16.3 336 6.4 102760 100
2005-03-18 08:06:29 51°17.782 2°42.038 15.2 331 6.4 102750 100
2005-03-18 08:06:34 51°17.794 2°42.011 15.6 331 6.4 102750 100
2005-03-18 08:06:38 51°17.803 2°41.992 15.1 329 6.4 102750 100
2005-03-18 08:06:44 51°17.814 2°41.965 15.6 331 6.4 102760 100
2005-03-18 08:06:48 51°17.823 2°41.946 15.3 330 6.4 102760 100
2005-03-18 08:06:54 51°17.835 2°41.917 14.5 329 6.4 102770 100
2005-03-18 08:06:58 51°17.845 2°41.896 15.2 330 6.4 102750 100
2005-03-18 08:07:04 51°17.857 2°41.87 15.8 327 6.4 102750 100
2005-03-18 08:07:09 51°17.868 2°41.847 14.2 331 6.4 102750 100
2005-03-18 08:07:14 51°17.88 2°41.824 14.5 328 6.5 102750 100
2005-03-18 08:07:18 51°17.89 2°41.802 15.1 329 6.4 102730 100
2005-03-18 08:07:23 51°17.901 2°41.779 16.3 330 6.4 102730 100
2005-03-18 08:07:28 51°17.913 2°41.755 16 330 6.4 102730 100
2005-03-18 08:07:34 51°17.925 2°41.73 15.8 334 6.4 102760 100
2005-03-18 08:07:38 51°17.935 2°41.708 14.8 325 6.4 102770 100
2005-03-18 08:07:44 51°17.948 2°41.683 16.2 331 6.4 102770 100
2005-03-18 08:07:48 51°17.957 2°41.664 14.2 331 6.4 102750 100
2005-03-18 08:07:53 51°17.969 2°41.638 15.8 329 6.4 102750 100
2005-03-18 08:07:58 51°17.98 2°41.614 14.3 332 6.4 102750 100
2005-03-18 08:08:04 51°17.993 2°41.588 15.9 332 6.4 102760 100
2005-03-18 08:08:08 51°18.001 2°41.569 14.4 327 6.4 102770 100
2005-03-18 08:08:14 51°18.016 2°41.538 14.9 332 6.4 102770 100
2005-03-18 08:08:18 51°18.024 2°41.519 15.3 330 6.4 102750 100
2005-03-18 08:08:23 51°18.036 2°41.496 15.2 330 6.4 102750 100
2005-03-18 08:08:28 51°18.047 2°41.472 14.6 331 6.4 102760 100
2005-03-18 08:08:34 51°18.059 2°41.448 14.9 329 6.4 102760 100
2005-03-18 08:08:38 51°18.069 2°41.429 15.1 326 6.4 102760 100
2005-03-18 08:08:44 51°18.082 2°41.401 16.3 329 6.4 102770 100
2005-03-18 08:08:48 51°18.093 2°41.38 15.7 333 6.4 102770 100
2005-03-18 08:08:54 51°18.105 2°41.354 15.2 328 6.4 102770 100
2005-03-18 08:08:58 51°18.114 2°41.335 16.5 330 6.4 102770 100
2005-03-18 08:09:04 51°18.127 2°41.307 15.4 329 6.4 102770 100
2005-03-18 08:09:08 51°18.137 2°41.289 16.3 328 6.4 102770 100
2005-03-18 08:09:14 51°18.15 2°41.262 15.2 336 6.4 102760 100
2005-03-18 08:09:19 51°18.161 2°41.237 17.3 332 6.4 102760 100
2005-03-18 08:09:24 51°18.172 2°41.215 16.6 330 6.4 102770 100
2005-03-18 08:09:28 51°18.183 2°41.193 16.3 334 6.4 102760 100
2005-03-18 08:09:34 51°18.195 2°41.168 16.8 329 6.4 102760 100
2005-03-18 08:09:38 51°18.205 2°41.147 17.7 329 6.4 102760 100
2005-03-18 08:09:43 51°18.216 2°41.123 15.7 336 6.4 102780 100
2005-03-18 08:09:48 51°18.227 2°41.099 16.7 336 6.4 102780 100
2005-03-18 08:09:53 51°18.238 2°41.076 15.6 329 6.4 102760 100
2005-03-18 08:09:59 51°18.25 2°41.05 17.8 329 6.4 102770 100
2005-03-18 08:10:04 51°18.261 2°41.027 16.6 335 6.4 102770 100
2005-03-18 08:10:09 51°18.273 2°41.004 15.7 337 6.4 102770 100
2005-03-18 08:10:14 51°18.284 2°40.98 17.8 334 6.4 102750 100
2005-03-18 08:10:18 51°18.294 2°40.96 15.3 337 6.4 102760 100
2005-03-18 08:10:24 51°18.307 2°40.935 16.5 333 6.4 102760 100
2005-03-18 08:10:28 51°18.317 2°40.913 14.9 336 6.4 102760 100
2005-03-18 08:10:34 51°18.33 2°40.886 15.1 337 6.4 102760 100
2005-03-18 08:10:38 51°18.339 2°40.867 16.1 337 6.4 102770 100
2005-03-18 08:10:43 51°18.349 2°40.847 15.7 335 6.4 102770 100
2005-03-18 08:10:48 51°18.362 2°40.821 14.6 334 6.4 102780 100
2005-03-18 08:10:54 51°18.374 2°40.796 16.1 333 6.4 102780 100
2005-03-18 08:10:58 51°18.384 2°40.775 15 336 6.4 102780 100
2005-03-18 08:11:04 51°18.397 2°40.75 16.8 339 6.4 102780 100
2005-03-18 08:11:08 51°18.406 2°40.731 16.4 336 6.4 102780 100
2005-03-18 08:11:14 51°18.42 2°40.703 15.4 337 6.4 102780 100
2005-03-18 08:11:19 51°18.431 2°40.68 15.2 336 6.4 102780 100
2005-03-18 08:11:22 51°18.439 2°40.664 15.4 337 6.4 102780 100
2005-03-18 08:11:29 51°18.453 2°40.634 16.1 337 6.4 102780 100
2005-03-18 08:11:34 51°18.464 2°40.61 15.3 334 6.4 102780 100
2005-03-18 08:11:38 51°18.474 2°40.59 15.7 336 6.4 102780 100
2005-03-18 08:11:43 51°18.486 2°40.567 16.4 331 6.4 102780 100
2005-03-18 08:11:48 51°18.497 2°40.544 14.5 339 6.4 102780 100
2005-03-18 08:11:54 51°18.511 2°40.516 15.2 338 6.4 102780 100
2005-03-18 08:11:58 51°18.52 2°40.497 16.8 334 6.4 102790 100
2005-03-18 08:12:04 51°18.532 2°40.472 15.3 339 6.4 102790 100
2005-03-18 08:12:08 51°18.541 2°40.454 15.8 333 6.4 102760 100
2005-03-18 08:12:13 51°18.554 2°40.429 14.3 334 6.4 102760 100
2005-03-18 08:12:18 51°18.566 2°40.406 15.8 333 6.4 102760 100
2005-03-18 08:12:24 51°18.579 2°40.381 14 338 6.4 102780 100
2005-03-18 08:12:28 51°18.588 2°40.363 15.8 334 6.4 102780 100
2005-03-18 08:12:33 51°18.601 2°40.338 15.6 336 6.4 102780 100
2005-03-18 08:12:38 51°18.612 2°40.314 15.3 339 6.4 102780 100
2005-03-18 08:12:44 51°18.625 2°40.289 15.8 334 6.4 102780 100
2005-03-18 08:12:48 51°18.634 2°40.271 15.1 337 6.4 102780 100
2005-03-18 08:12:53 51°18.647 2°40.245 14 343 6.4 102780 100
2005-03-18 08:12:58 51°18.658 2°40.222 14.3 337 6.4 102780 100
2005-03-18 08:13:04 51°18.671 2°40.197 15.2 337 6.4 102790 100
2005-03-18 08:13:08 51°18.68 2°40.178 15.6 336 6.4 102780 100
2005-03-18 08:13:14 51°18.694 2°40.151 14.7 339 6.4 102780 100
2005-03-18 08:13:18 51°18.704 2°40.13 15.2 337 6.4 102780 100
2005-03-18 08:13:24 51°18.717 2°40.104 14.4 340 6.4 102780 100
2005-03-18 08:13:29 51°18.728 2°40.082 15.2 336 6.4 102780 100
2005-03-18 08:13:34 51°18.74 2°40.059 14.4 337 6.4 102780 100
2005-03-18 08:13:39 51°18.752 2°40.036 15.6 338 6.4 102780 100
2005-03-18 08:13:44 51°18.764 2°40.014 15 337 6.4 102780 100
2005-03-18 08:13:48 51°18.775 2°39.993 15 336 6.4 102780 100
2005-03-18 08:13:54 51°18.787 2°39.968 14.8 336 6.4 102790 100
2005-03-18 08:13:59 51°18.798 2°39.945 15.2 335 6.4 102790 100
2005-03-18 08:14:04 51°18.81 2°39.922 14.8 337 6.4 102790 100
2005-03-18 08:14:09 51°18.822 2°39.899 15.7 336 6.4 102790 100
2005-03-18 08:14:14 51°18.833 2°39.876 16.3 337 6.4 102780 100
2005-03-18 08:14:18 51°18.843 2°39.855 14 336 6.4 102770 100
2005-03-18 08:14:23 51°18.855 2°39.832 16.4 342 6.4 102770 100
2005-03-18 08:14:28 51°18.865 2°39.811 17 340 6.4 102770 100
2005-03-18 08:14:34 51°18.878 2°39.784 16.2 346 6.4 102760 100
2005-03-18 08:14:38 51°18.889 2°39.763 16 341 6.4 102790 100
2005-03-18 08:14:44 51°18.901 2°39.738 15.8 336 6.4 102790 100
2005-03-18 08:14:48 51°18.912 2°39.717 15.8 340 6.4 102760 100
2005-03-18 08:14:54 51°18.924 2°39.692 15.3 333 6.4 102760 100
2005-03-18 08:14:59 51°18.935 2°39.668 15.4 339 6.4 102760 100
2005-03-18 08:15:04 51°18.946 2°39.645 17.3 338 6.4 102790 100
2005-03-18 08:15:08 51°18.957 2°39.624 16.7 339 6.4 102790 100
2005-03-18 08:15:14 51°18.969 2°39.599 16.4 338 6.4 102790 100
2005-03-18 08:15:19 51°18.981 2°39.575 16.3 337 6.4 102780 100
2005-03-18 08:15:24 51°18.992 2°39.552 15.8 337 6.4 102780 100
2005-03-18 08:15:28 51°19.002 2°39.53 16.3 338 6.4 102770 100
2005-03-18 08:15:34 51°19.016 2°39.503 15.7 336 6.4 102770 100
2005-03-18 08:15:38 51°19.025 2°39.484 16.4 334 6.4 102780 100
2005-03-18 08:15:44 51°19.038 2°39.459 17.1 331 6.4 102780 100
2005-03-18 08:15:49 51°19.049 2°39.435 16.7 337 6.4 102770 100
2005-03-18 08:15:54 51°19.06 2°39.412 16 335 6.4 102770 100
2005-03-18 08:15:58 51°19.071 2°39.391 15.2 339 6.4 102780 100
2005-03-18 08:16:04 51°19.084 2°39.366 17.6 338 6.4 102780 100
2005-03-18 08:16:08 51°19.093 2°39.347 16.3 341 6.4 102780 100
2005-03-18 08:16:13 51°19.105 2°39.322 15.5 339 6.4 102780 100
2005-03-18 08:16:19 51°19.119 2°39.296 15.7 338 6.4 102780 100
2005-03-18 08:16:24 51°19.129 2°39.275 15 339 6.4 102780 100
2005-03-18 08:16:29 51°19.142 2°39.249 15.9 339 6.4 102780 100
2005-03-18 08:16:34 51°19.152 2°39.228 15.8 335 6.4 102790 100
2005-03-18 08:16:38 51°19.161 2°39.208 15.5 339 6.4 102800 100
2005-03-18 08:16:44 51°19.174 2°39.182 14.5 339 6.4 102800 100
2005-03-18 08:16:47 51°19.181 2°39.166 14.8 337 6.4 102800 100
2005-03-18 08:16:54 51°19.196 2°39.136 15.8 337 6.4 102800 100
2005-03-18 08:16:58 51°19.206 2°39.115 14.6 338 6.4 102800 100
2005-03-18 08:17:04 51°19.218 2°39.09 15.1 339 6.4 102780 100
2005-03-18 08:17:09 51°19.229 2°39.066 14.5 341 6.4 102790 100
2005-03-18 08:17:13 51°19.238 2°39.045 14.6 338 6.4 102790 100
2005-03-18 08:17:18 51°19.248 2°39.024 15.3 335 6.4 102790 100
2005-03-18 08:17:24 51°19.261 2°38.997 16.2 337 6.4 102800 100
2005-03-18 08:17:29 51°19.273 2°38.973 15.5 338 6.4 102800 100
2005-03-18 08:17:34 51°19.285 2°38.948 16.7 336 6.4 102790 100
2005-03-18 08:17:38 51°19.294 2°38.929 16.5 336 6.4 102790 100
2005-03-18 08:17:44 51°19.306 2°38.904 14.9 339 6.4 102790 100
2005-03-18 08:17:49 51°19.318 2°38.88 15.7 338 6.4 102790 100
2005-03-18 08:17:54 51°19.328 2°38.857 15.9 333 6.4 102800 100
2005-03-18 08:17:58 51°19.338 2°38.836 14.4 334 6.4 102790 100
2005-03-18 08:18:04 51°19.351 2°38.81 16.6 334 6.4 102790 100
2005-03-18 08:18:08 51°19.359 2°38.791 16 333 6.4 102790 100
2005-03-18 08:18:14 51°19.374 2°38.762 15.9 337 6.4 102780 100
2005-03-18 08:18:18 51°19.383 2°38.743 15.2 331 6.4 102780 100
2005-03-18 08:18:24 51°19.395 2°38.717 15 337 6.4 102780 100
2005-03-18 08:18:28 51°19.404 2°38.698 14.6 335 6.4 102770 100
2005-03-18 08:18:34 51°19.417 2°38.67 15.8 327 6.4 102770 100
2005-03-18 08:18:39 51°19.429 2°38.647 15.2 335 6.4 102790 100
2005-03-18 08:18:44 51°19.44 2°38.623 14.8 334 6.4 102790 100
2005-03-18 08:18:48 51°19.45 2°38.602 14.6 336 6.4 102780 100
2005-03-18 08:18:53 51°19.461 2°38.579 15.3 333 6.4 102780 100
2005-03-18 08:18:59 51°19.474 2°38.553 14.9 328 6.4 102770 100
2005-03-18 08:19:04 51°19.485 2°38.529 14.1 336 6.4 102770 100
2005-03-18 08:19:08 51°19.496 2°38.509 15.5 333 6.4 102770 100
2005-03-18 08:19:14 51°19.508 2°38.483 15.3 330 6.4 102770 100
2005-03-18 08:19:19 51°19.518 2°38.459 14.4 335 6.4 102770 100
2005-03-18 08:19:24 51°19.53 2°38.436 14.9 333 6.4 102770 100
2005-03-18 08:19:28 51°19.539 2°38.417 15.7 335 6.4 102770 100
2005-03-18 08:19:34 51°19.552 2°38.389 15.5 337 6.4 102770 100
2005-03-18 08:19:38 51°19.562 2°38.367 15 333 6.4 102770 100
2005-03-18 08:19:43 51°19.573 2°38.344 13.8 337 6.4 102760 100
2005-03-18 08:19:49 51°19.586 2°38.317 14 331 6.4 102780 100
2005-03-18 08:19:54 51°19.598 2°38.292 15.2 337 6.4 102780 100
2005-03-18 08:19:58 51°19.607 2°38.273 15.3 332 6.4 102780 100
2005-03-18 08:20:03 51°19.618 2°38.249 15 334 6.4 102780 100
2005-03-18 08:20:08 51°19.628 2°38.228 14.7 334 6.4 102770 100
2005-03-18 08:20:14 51°19.643 2°38.198 15.8 334 6.4 102770 100
2005-03-18 08:20:18 51°19.652 2°38.179 15.2 334 6.4 102780 100
2005-03-18 08:20:24 51°19.664 2°38.153 15.1 336 6.4 102780 100
2005-03-18 08:20:28 51°19.675 2°38.132 14.1 331 6.4 102780 100
2005-03-18 08:20:34 51°19.687 2°38.106 14.2 338 6.4 102780 100
2005-03-18 08:20:38 51°19.696 2°38.088 15.2 332 6.4 102770 100
2005-03-18 08:20:44 51°19.709 2°38.06 15.5 336 6.4 102770 100
2005-03-18 08:20:48 51°19.718 2°38.041 15.3 332 6.4 102770 100
2005-03-18 08:20:52 51°19.728 2°38.022 14.1 332 6.4 102770 100
2005-03-18 08:20:59 51°19.743 2°37.989 14.8 332 6.4 102760 100
2005-03-18 08:21:04 51°19.754 2°37.965 15.1 334 6.4 102760 100
2005-03-18 08:21:09 51°19.766 2°37.942 14.7 335 6.4 102780 100
2005-03-18 08:21:14 51°19.777 2°37.918 15.7 335 6.4 102780 100
2005-03-18 08:21:19 51°19.788 2°37.894 15.4 332 6.4 102760 100
2005-03-18 08:21:24 51°19.799 2°37.871 15.7 331 6.4 102760 100
2005-03-18 08:21:28 51°19.809 2°37.849 14.7 331 6.4 102770 100
2005-03-18 08:21:34 51°19.821 2°37.824 15.7 329 6.4 102770 100
2005-03-18 08:21:38 51°19.832 2°37.804 15.9 330 6.4 102770 100
2005-03-18 08:21:44 51°19.844 2°37.778 16.5 326 6.4 102770 100
2005-03-18 08:21:49 51°19.855 2°37.755 15.9 331 6.4 102770 100
2005-03-18 08:21:54 51°19.866 2°37.732 15.5 332 6.4 102770 100
2005-03-18 08:21:58 51°19.876 2°37.711 14.8 328 6.4 102770 100
2005-03-18 08:22:04 51°19.889 2°37.685 14.5 330 6.4 102770 100
2005-03-18 08:22:08 51°19.898 2°37.667 16.9 330 6.4 102750 100
2005-03-18 08:22:14 51°19.911 2°37.639 15.8 331 6.4 102750 100
2005-03-18 08:22:18 51°19.921 2°37.618 17 330 6.4 102760 100
2005-03-18 08:22:24 51°19.934 2°37.592 16.2 332 6.4 102760 100
2005-03-18 08:22:28 51°19.944 2°37.57 16.1 328 6.4 102740 100
2005-03-18 08:22:34 51°19.956 2°37.545 14.6 332 6.4 102740 100
2005-03-18 08:22:38 51°19.966 2°37.524 15.7 332 6.4 102750 100
2005-03-18 08:22:44 51°19.978 2°37.498 16.2 328 6.4 102750 100
2005-03-18 08:22:48 51°19.988 2°37.476 16 330 6.4 102750 100
2005-03-18 08:22:54 51°20 2°37.451 15.3 330 6.4 102760 100
2005-03-18 08:22:58 51°20.01 2°37.43 16.1 331 6.4 102760 100
2005-03-18 08:23:04 51°20.023 2°37.404 15.9 330 6.4 102760 100
2005-03-18 08:23:09 51°20.033 2°37.381 14.5 335 6.4 102760 100
2005-03-18 08:23:14 51°20.045 2°37.358 16.7 331 6.4 102750 100
2005-03-18 08:23:18 51°20.054 2°37.339 16.3 332 6.4 102770 100
2005-03-18 08:23:24 51°20.067 2°37.311 16.1 332 6.4 102770 100
2005-03-18 08:23:28 51°20.078 2°37.29 16 331 6.4 102750 100
2005-03-18 08:23:34 51°20.09 2°37.265 13 330 6.4 102750 100
2005-03-18 08:23:39 51°20.101 2°37.241 14.6 332 6.4 102750 100
2005-03-18 08:23:44 51°20.112 2°37.217 15.4 330 6.4 102750 100
2005-03-18 08:23:48 51°20.122 2°37.196 13.8 326 6.4 102750 100
2005-03-18 08:23:54 51°20.135 2°37.171 15.6 330 6.4 102770 100
2005-03-18 08:23:59 51°20.145 2°37.148 14.6 334 6.4 102770 100
2005-03-18 08:24:04 51°20.157 2°37.125 14.7 328 6.4 102760 100
2005-03-18 08:24:09 51°20.169 2°37.099 15.9 331 6.4 102760 100
2005-03-18 08:24:14 51°20.18 2°37.076 14.7 328 6.4 102750 100
2005-03-18 08:24:19 51°20.19 2°37.055 13.8 333 6.4 102750 100
2005-03-18 08:24:24 51°20.201 2°37.032 14.3 333 6.4 102760 100
2005-03-18 08:24:28 51°20.212 2°37.01 14.4 329 6.4 102770 100
2005-03-18 08:24:33 51°20.223 2°36.986 14.1 329 6.4 102770 100
2005-03-18 08:24:38 51°20.234 2°36.963 13.2 332 6.4 102760 100
2005-03-18 08:24:44 51°20.247 2°36.937 14.4 328 6.4 102760 100
2005-03-18 08:24:48 51°20.256 2°36.919 14.3 333 6.3 102760 100
2005-03-18 08:24:54 51°20.27 2°36.888 14 334 6.3 102760 100
2005-03-18 08:24:58 51°20.279 2°36.87 13.4 330 6.3 102760 100
2005-03-18 08:25:04 51°20.291 2°36.844 14.4 327 6.3 102760 100
2005-03-18 08:25:08 51°20.3 2°36.825 15.1 325 6.3 102750 100
2005-03-18 08:25:14 51°20.315 2°36.795 14.5 331 6.3 102750 100
2005-03-18 08:25:18 51°20.324 2°36.776 15 329 6.3 102770 100
2005-03-18 08:25:24 51°20.337 2°36.749 15.3 330 6.3 102770 100
2005-03-18 08:25:28 51°20.347 2°36.728 16.7 326 6.3 102770 100
2005-03-18 08:25:33 51°20.358 2°36.705 15.8 331 6.3 102750 100
2005-03-18 08:25:39 51°20.37 2°36.679 14.2 328 6.3 102770 100
2005-03-18 08:25:44 51°20.381 2°36.656 15.1 327 6.3 102770 100
2005-03-18 08:25:48 51°20.391 2°36.634 15.7 328 6.3 102760 100
2005-03-18 08:25:54 51°20.403 2°36.609 16 328 6.3 102760 100
2005-03-18 08:25:58 51°20.414 2°36.588 15.8 331 6.3 102770 100
2005-03-18 08:26:03 51°20.425 2°36.565 17.1 332 6.3 102770 100
2005-03-18 08:26:08 51°20.436 2°36.541 15.9 330 6.3 102770 100
2005-03-18 08:26:13 51°20.448 2°36.518 15.1 329 6.3 102750 100
2005-03-18 08:26:18 51°20.459 2°36.494 15.7 327 6.3 102750 100
2005-03-18 08:26:24 51°20.471 2°36.468 15.3 328 6.3 102760 100
2005-03-18 08:26:28 51°20.479 2°36.449 15.5 327 6.3 102750 100
2005-03-18 08:26:34 51°20.493 2°36.42 15.1 328 6.3 102750 100
2005-03-18 08:26:38 51°20.503 2°36.4 16.9 327 6.3 102750 100
2005-03-18 08:26:44 51°20.516 2°36.375 15.1 323 6.3 102750 100
2005-03-18 08:26:49 51°20.53 2°36.355 14.1 326 6.3 102750 100
2005-03-18 08:26:54 51°20.544 2°36.335 15.7 315 6.3 102740 100
2005-03-18 08:26:59 51°20.559 2°36.318 13.9 228 6.3 102740 100
2005-03-18 08:27:04 51°20.575 2°36.304 12.7 314 6.3 102740 100
2005-03-18 08:27:08 51°20.591 2°36.293 12.9 312 6.3 102760 100
2005-03-18 08:27:14 51°20.61 2°36.28 13.2 308 6.3 102760 100
2005-03-18 08:27:19 51°20.628 2°36.27 11.9 312 6.3 102770 100
2005-03-18 08:27:24 51°20.646 2°36.262 11.7 307 6.3 102770 100
2005-03-18 08:27:28 51°20.66 2°36.257 11.3 308 6.3 102770 100
2005-03-18 08:27:34 51°20.682 2°36.25 11.3 298 6.3 102780 100
2005-03-18 08:27:38 51°20.698 2°36.246 10.3 298 6.3 102760 100
2005-03-18 08:27:44 51°20.717 2°36.244 10.7 295 6.3 102760 100
2005-03-18 08:27:48 51°20.733 2°36.24 10.1 291 6.3 102770 100
2005-03-18 08:27:54 51°20.751 2°36.241 10.3 292 6.3 102770 100
2005-03-18 08:27:59 51°20.767 2°36.239 10 299 6.3 102780 100
2005-03-18 08:28:04 51°20.784 2°36.238 10.8 290 6.3 102780 100
2005-03-18 08:28:08 51°20.799 2°36.239 10.6 293 6.3 102780 100
2005-03-18 08:28:14 51°20.816 2°36.238 11.9 291 6.3 102780 100
2005-03-18 08:28:19 51°20.833 2°36.24 10.5 296 6.3 102790 100
2005-03-18 08:28:24 51°20.849 2°36.239 11.3 287 6.3 102790 100
2005-03-18 08:28:29 51°20.867 2°36.24 11 288 6.3 102790 100
2005-03-18 08:28:34 51°20.882 2°36.24 11.6 289 6.3 102790 100
2005-03-18 08:28:38 51°20.897 2°36.24 10.4 290 6.3 102790 100
2005-03-18 08:28:44 51°20.915 2°36.241 11.2 285 6.3 102800 100
2005-03-18 08:28:49 51°20.931 2°36.241 11.2 289 6.3 102790 100
2005-03-18 08:28:54 51°20.948 2°36.241 10.4 286 6.3 102790 100
2005-03-18 08:28:58 51°20.962 2°36.241 11.1 283 6.3 102800 100
2005-03-18 08:29:04 51°20.981 2°36.241 11.7 287 6.3 102800 100
2005-03-18 08:29:08 51°20.996 2°36.242 10.8 291 6.3 102790 100
2005-03-18 08:29:14 51°21.014 2°36.242 10.4 291 6.3 102790 100
2005-03-18 08:29:19 51°21.03 2°36.242 10.4 288 6.3 102790 100
2005-03-18 08:29:24 51°21.046 2°36.243 12.4 276 6.3 102790 100
2005-03-18 08:29:28 51°21.061 2°36.242 11.5 289 6.3 102790 100
2005-03-18 08:29:34 51°21.081 2°36.243 11.5 280 6.3 102790 100
2005-03-18 08:29:39 51°21.096 2°36.244 10.1 290 6.3 102790 100
2005-03-18 08:29:43 51°21.111 2°36.243 11.7 287 6.3 102800 100
2005-03-18 08:29:48 51°21.126 2°36.243 9.8 289 6.3 102780 100
2005-03-18 08:29:54 51°21.145 2°36.244 10.7 286 6.3 102780 100
2005-03-18 08:29:59 51°21.162 2°36.244 11.7 285 6.3 102780 100
2005-03-18 08:30:04 51°21.179 2°36.245 11 289 6.3 102780 100
2005-03-18 08:30:09 51°21.195 2°36.245 10.7 288 6.3 102780 100
2005-03-18 08:30:14 51°21.211 2°36.245 11.1 285 6.3 102780 100
2005-03-18 08:30:19 51°21.228 2°36.245 12.1 282 6.3 102780 100
2005-03-18 08:30:24 51°21.244 2°36.247 10 285 6.3 102780 100
2005-03-18 08:30:29 51°21.261 2°36.246 10.5 281 6.3 102780 100
2005-03-18 08:30:34 51°21.278 2°36.248 10.7 294 6.3 102790 100
2005-03-18 08:30:38 51°21.293 2°36.247 12.3 284 6.3 102790 100
2005-03-18 08:30:44 51°21.312 2°36.249 12.3 281 6.3 102790 100
2005-03-18 08:30:49 51°21.329 2°36.249 12.3 279 6.3 102790 100
2005-03-18 08:30:54 51°21.345 2°36.251 10.7 279 6.3 102790 100
2005-03-18 08:30:58 51°21.36 2°36.251 9.7 289 6.3 102790 100
2005-03-18 08:31:04 51°21.379 2°36.253 11.8 279 6.3 102790 100
2005-03-18 08:31:08 51°21.392 2°36.255 8.6 282 6.4 102790 100
2005-03-18 08:31:13 51°21.411 2°36.256 11.8 -999 6.4 102790 100
2005-03-18 08:31:18 51°21.427 2°36.256 9.7 284 6.4 102790 100
2005-03-18 08:31:24 51°21.446 2°36.258 11.1 284 6.4 102790 100
2005-03-18 08:31:29 51°21.463 2°36.261 9.4 286 6.4 102780 100
2005-03-18 08:31:34 51°21.48 2°36.261 10.3 278 6.4 102780 100
2005-03-18 08:31:39 51°21.497 2°36.264 9.1 284 6.3 102780 100
2005-03-18 08:31:44 51°21.514 2°36.264 10 290 6.3 102780 100
2005-03-18 08:31:48 51°21.527 2°36.265 10.2 286 6.3 102780 100
2005-03-18 08:31:54 51°21.548 2°36.268 9.8 287 6.3 102780 100
2005-03-18 08:31:58 51°21.563 2°36.269 10.2 287 6.3 102780 100
2005-03-18 08:32:04 51°21.582 2°36.271 10.5 281 6.3 102780 100
2005-03-18 08:32:08 51°21.597 2°36.272 9.6 286 6.3 102780 100
2005-03-18 08:32:14 51°21.616 2°36.273 11.4 282 6.3 102780 100